Location: Newark
(50.4348°N, 30.5552°E)
Time: 04:35:42
(UTC+00:00)

Altair - Pass Details

Date: 26 January 2020
Orbit: 1502 x 1682 km, 47.2° (Epoch: 19 February)

Event Time Altitude Azimuth Distance (km) Brightness Sun altitude
Rises 13:40:12 0° 288° (WNW) 4,935 10.6 6.9°
Reaches altitude 10° 13:44:20 10° 275° (W) 3,931 10.4 6.4°
Maximum altitude 13:51:17 22° 230° (SW) 3,063 11.0 5.5°
Drops below altitude 10° 13:58:07 10° 186° (S) 3,841 10.3 4.6°
Sets 14:02:08 0° 171° (S) 4,793 10.5 4.1°
